Location: Monrovia
(34.7865°N, 86.7139°W)
Time: 22:07:36
(UTC+00:00)

Cosmos 1140 Rocket - Pass Details

Date: 14 July 2020
Orbit: 744 x 768 km, 74.1° (Epoch: 08 August)

Event Time Altitude Azimuth Distance (km) Brightness Sun altitude
Exits shadow 07:32:15 64° 351° (N) 839 3.7 -28.9°
Drops below altitude 10° 07:36:45 10° 14° (NNE) 2,302 6.9 -28.5°
Sets 07:39:08 0° 16° (NNE) 3,235 7.9 -28.2°
